This demonstration page uses our WeatherBlox Daily Observations layout. Learn more.

Left ArrowRight Arrow

39.29038, -76.61219

Hourly Observations for November 21, 2020

Temp ( °F °C ) Dew Point ( °F °C ) Humidity (%) Winds ( mph kmh ) Pressure ( in mb ) Visibility ( mi km ) Precip ( " mm )
12:54 am 00:54 Clear 48 8.9 36 2.2 63 63 Calm 30.30 1026 10 16 0.00 0.00
1:54 am 01:54 Mostly Clear 47 8.3 36 2.2 66 66 Calm 30.31 1026 10 16 0.00 0.00
2:54 am 02:54 Clear 47 8.3 36 2.2 66 66 Calm 30.31 1027 10 16 0.00 0.00
3:54 am 03:54 Mostly Cloudy 43 6.1 37 2.8 80 80 Calm 30.30 1026 10 16 0.00 0.00
4:54 am 04:54 Partly Cloudy 43 6.1 37 2.8 80 80 W 3 6 30.33 1027 10 16 0.00 0.00
5:54 am 05:54 Mostly Cloudy 44 6.7 38 3.3 79 79 Calm 30.33 1027 10 16 0.00 0.00
6:54 am 06:54 Mostly Cloudy 47 8.3 38 3.3 71 71 WSW 3 6 30.35 1028 9 14 0.00 0.00
7:54 am 07:54 Mostly Cloudy 51 10.6 39 3.9 64 64 WSW 5 7 30.37 1028 10 16 0.00 0.00
8:54 am 08:54 Mostly Cloudy 56 13.3 43 6.1 62 62 Calm 30.38 1029 10 16 0.00 0.00
9:54 am 09:54 Mostly Cloudy 64 17.8 44 6.7 48 48 Calm 30.37 1028 10 16 0.00 0.00
10:54 am 10:54 Mostly Cloudy 65 18.3 45 7.2 49 49 Calm 30.36 1028 10 16 0.00 0.00
11:54 am 11:54 Mostly Cloudy 66 18.9 46 7.8 49 49 WNW 3 6 30.34 1028 10 16 0.00 0.00
12:54 pm 12:54 Mostly Cloudy 66 18.9 47 8.3 50 50 W 5 7 30.32 1027 10 16 0.00 0.00
1:54 pm 13:54 Mostly Cloudy 67 19.4 47 8.3 49 49 Calm 30.32 1027 10 16 0.00 0.00
2:54 pm 14:54 Cloudy 67 19.4 46 7.8 47 47 VRB 6 9 30.32 1027 10 16 0.00 0.00
3:54 pm 15:54 Cloudy 65 18.3 46 7.8 51 51 NNW 7 11 30.33 1027 10 16 0.00 0.00
4:54 pm 16:54 Cloudy 63 17.2 46 7.8 54 54 NNW 5 7 30.34 1027 10 16 0.00 0.00
5:54 pm 17:54 Cloudy 63 17.2 46 7.8 54 54 Calm 30.36 1028 10 16 0.00 0.00
6:54 pm 18:54 Cloudy 62 16.7 46 7.8 56 56 N 3 6 30.37 1028 10 16 0.00 0.00
7:54 pm 19:54 Cloudy 60 15.6 45 7.2 58 58 NNE 6 9 30.38 1029 10 16 0.00 0.00
8:54 pm 20:54 Cloudy 60 15.6 41 5 50 50 NNE 8 13 30.38 1029 10 16 0.00 0.00
9:54 pm 21:54 Cloudy 59 15 36 2.2 42 42 NNE 7 11 30.38 1029 10 16 0.00 0.00
10:54 pm 22:54 Mostly Cloudy 56 13.3 38 3.3 51 51 NE 5 7 30.38 1029 10 16 0.00 0.00
11:54 pm 23:54 Cloudy 57 13.9 39 3.9 51 51 NNE 5 7 30.39 1029 10 16 0.00 0.00

Powered by AerisWeather